Benton Harbor, MI

1:05 PM EDT on October 01, 2016 (GMT -0400)
Southwest Michigan Regional

Weather History for KBEH - April, 2013

Change the Weather History Date:

Thursday, April 11, 2013

  Actual Average Record
Temperature  
Mean Temperature 41 °F -  
Max Temperature 43 °F 53 °F 79 °F (1977)
Min Temperature 39 °F 32 °F 18 °F (1952)
Degree Days  
Heating Degree Days 24    
Moisture  
Dew Point 39 °F    
Average Humidity 92    
Maximum Humidity 100    
Minimum Humidity 86    
Precipitation  
Precipitation 1.22 in - - ()
Sea Level Pressure  
Sea Level Pressure 29.71 in    
Wind  
Wind Speed 14 mph (East)    
Max Wind Speed 24 mph    
Max Gust Speed 34 mph    
Visibility 5 miles    
Events Rain , Thunderstorm    
Averages and records for this station are not official NWS values.
T = Trace of Precipitation, MM = Missing Value Source: NWS Daily Summary

Daily Weather History Graph

Daily Weather History Graph

Search for Another Location

Airport or City:

Trip Planner

Search our weather history database for the weather conditions in past years. The results will help you decide how hot, cold, wet, or windy it might be!

Date:

Astronomy

Apr. 11, 2013 Rise Set
Actual Time 7:11 AM EDT 8:22 PM EDT
Civil Twilight 6:42 AM EDT 8:51 PM EDT
Nautical Twilight 6:07 AM EDT 9:26 PM EDT
Astronomical Twilight 5:31 AM EDT 10:02 PM EDT
Moon 7:40 AM EDT (4/11) 9:58 PM EDT (4/11)
Length of Visible Light 14h 09m
Length of Day
13h 11m
New Moon, 2% of the Moon is Illuminated
Apr 11
New Moon
Apr 18
First Quarter
Apr 25
Full
May 2
Last Quarter
May 9
New

Hourly Weather History & Observations

Time (EDT) Temp. Windchill Dew Point Humidity Pressure Visibility Wind Dir Wind Speed Gust Speed Precip Events Conditions
12:53 AM 41.0 °F 35.8 °F 39.0 °F 93% 29.91 in 4.0 mi East 8.1 mph 20.7 mph 0.07 in Rain Rain
2:13 AM 39.2 °F 31.6 °F 37.4 °F 93% 29.87 in 2.5 mi ENE 12.7 mph - 0.11 in Rain , Thunderstorm Heavy Thunderstorms and Rain
2:28 AM 39.2 °F 32.5 °F 37.4 °F 93% 29.84 in 2.5 mi ENE 10.4 mph - 0.18 in Rain Heavy Rain
2:36 AM 39.2 °F 33.6 °F 37.4 °F 93% 29.85 in 2.5 mi ENE 8.1 mph - 0.22 in Rain Heavy Rain
2:51 AM 39.2 °F 31.2 °F 37.4 °F 93% 29.84 in 2.5 mi East 13.8 mph 20.7 mph 0.31 in Rain Heavy Rain
2:53 AM 39.9 °F 32.5 °F 37.9 °F 93% 29.86 in 2.5 mi East 12.7 mph 20.7 mph 0.32 in Rain Heavy Rain
3:13 AM 39.2 °F 30.8 °F 37.4 °F 93% 29.82 in 1.8 mi East 15.0 mph 29.9 mph 0.12 in Rain Heavy Rain
3:21 AM 39.2 °F 35.0 °F 37.4 °F 93% 29.83 in 2.5 mi Variable 5.8 mph 21.9 mph 0.16 in Rain Heavy Rain
3:26 AM 39.2 °F 34.2 °F 37.4 °F 93% 29.84 in 3.0 mi North 6.9 mph 17.3 mph 0.17 in Rain Rain
3:53 AM 39.9 °F 35.1 °F 37.9 °F 93% 29.86 in 3.0 mi ENE 6.9 mph - 0.23 in Rain Rain
4:13 AM 39.2 °F 30.2 °F 37.4 °F 93% 29.79 in 6.0 mi East 17.3 mph 21.9 mph 0.02 in Rain Light Rain
4:22 AM 39.2 °F 30.2 °F 37.4 °F 93% 29.78 in 10.0 mi East 17.3 mph 25.3 mph 0.03 in Rain Light Rain
4:43 AM 39.2 °F 29.6 °F 37.4 °F 93% 29.78 in 10.0 mi East 19.6 mph 33.4 mph 0.03 in Rain Light Rain
4:53 AM 39.9 °F 30.0 °F 37.0 °F 89% 29.73 in 10.0 mi East 21.9 mph 27.6 mph 0.04 in   Overcast
5:18 AM 39.2 °F 30.5 °F 37.4 °F 93% 29.79 in 10.0 mi East 16.1 mph 21.9 mph N/A   Mostly Cloudy
5:53 AM 39.9 °F 30.8 °F 37.0 °F 89% 29.76 in 10.0 mi East 18.4 mph 27.6 mph N/A   Overcast
6:06 AM 39.2 °F 30.5 °F 37.4 °F 93% 29.75 in 10.0 mi East 16.1 mph 25.3 mph N/A   Overcast
6:32 AM 39.2 °F 29.8 °F 37.4 °F 93% 29.77 in 10.0 mi East 18.4 mph 26.5 mph N/A   Overcast
6:53 AM 39.9 °F 31.4 °F 37.0 °F 89% 29.76 in 10.0 mi East 16.1 mph 26.5 mph N/A   Overcast
7:22 AM 39.2 °F 30.8 °F 37.4 °F 93% 29.74 in 10.0 mi East 15.0 mph 23.0 mph N/A   Overcast
7:53 AM 41.0 °F 31.9 °F 37.0 °F 86% 29.77 in 10.0 mi East 19.6 mph 27.6 mph N/A   Overcast
8:34 AM 41.0 °F 33.1 °F 37.4 °F 87% 29.75 in 4.0 mi East 15.0 mph 27.6 mph 0.00 in Rain Light Rain
8:53 AM 41.0 °F 31.9 °F 37.9 °F 89% 29.75 in 7.0 mi East 19.6 mph 27.6 mph 0.01 in   Overcast
9:53 AM 41.0 °F 32.2 °F 39.0 °F 93% 29.73 in 10.0 mi East 18.4 mph 27.6 mph N/A   Overcast
10:53 AM 42.1 °F 33.3 °F 39.0 °F 89% 29.71 in 10.0 mi East 19.6 mph 29.9 mph 0.00 in   Overcast
11:53 AM 42.1 °F 32.8 °F 39.9 °F 92% 29.70 in 6.0 mi East 21.9 mph 27.6 mph 0.01 in Rain Light Rain
12:28 PM 42.8 °F 34.5 °F 39.2 °F 87% 29.69 in 1.8 mi East 18.4 mph 32.2 mph 0.05 in Rain Rain
12:35 PM 42.8 °F 33.5 °F 39.2 °F 87% 29.69 in 1.2 mi East 23.0 mph 34.5 mph 0.07 in Rain Light Rain
12:39 PM 42.8 °F 33.3 °F 39.2 °F 87% 29.69 in 2.0 mi East 24.2 mph 34.5 mph 0.08 in Rain Light Rain
12:50 PM 42.8 °F 34.5 °F 39.2 °F 87% 29.70 in 3.0 mi East 18.4 mph 32.2 mph 0.08 in Rain Light Rain
1:08 PM 42.8 °F 33.5 °F 39.2 °F 87% 29.69 in 1.8 mi East 23.0 mph 33.4 mph N/A   Overcast
1:41 PM 42.8 °F 34.3 °F 39.2 °F 87% 29.67 in 2.5 mi ESE 19.6 mph 27.6 mph 0.01 in Rain Light Rain
1:49 PM 42.8 °F 33.5 °F 39.2 °F 87% 29.67 in 4.0 mi East 23.0 mph 31.1 mph 0.01 in Rain Light Rain
1:53 PM 42.1 °F 33.6 °F 39.9 °F 92% 29.67 in 4.0 mi East 18.4 mph 31.1 mph 0.01 in   Overcast
2:33 PM 42.8 °F 34.8 °F 41.0 °F 93% 29.65 in 2.5 mi East 17.3 mph 27.6 mph N/A   Overcast
2:53 PM 43.0 °F 34.8 °F 41.0 °F 93% 29.66 in 1.8 mi East 18.4 mph 28.8 mph 0.01 in Rain Rain
3:01 PM 42.8 °F 34.0 °F 41.0 °F 93% 29.65 in 3.0 mi East 20.7 mph 25.3 mph 0.01 in Rain Light Rain
3:53 PM 43.0 °F 35.7 °F 41.0 °F 93% 29.65 in 9.0 mi East 15.0 mph 24.2 mph 0.02 in   Overcast
4:53 PM 43.0 °F 35.1 °F 41.0 °F 93% 29.63 in 3.0 mi East 17.3 mph 24.2 mph 0.01 in Rain Light Rain
5:53 PM 42.1 °F 34.2 °F 41.0 °F 96% 29.63 in 5.0 mi East 16.1 mph 21.9 mph 0.02 in Rain Light Rain
6:53 PM 42.1 °F 34.2 °F 39.9 °F 92% 29.63 in 4.0 mi East 16.1 mph - 0.06 in Rain Light Rain
7:13 PM 42.8 °F 35.4 °F 39.2 °F 87% 29.62 in 1.8 mi East 15.0 mph 20.7 mph 0.07 in Rain Heavy Rain
7:17 PM 42.8 °F 36.2 °F 39.2 °F 87% 29.62 in 1.2 mi East 12.7 mph - 0.09 in Rain Heavy Rain
7:29 PM 41.0 °F 33.9 °F 39.2 °F 93% 29.62 in 2.0 mi East 12.7 mph 20.7 mph 0.13 in Rain Rain
7:48 PM 41.0 °F 33.9 °F 39.2 °F 93% 29.63 in 1.5 mi East 12.7 mph - 0.20 in Rain Heavy Rain
7:53 PM 41.0 °F 33.9 °F 39.9 °F 96% 29.63 in 1.8 mi East 12.7 mph - 0.22 in Rain Rain
8:04 PM 41.0 °F 34.7 °F 39.2 °F 93% 29.62 in 2.5 mi East 10.4 mph - 0.03 in Rain Rain
8:12 PM 41.0 °F 35.2 °F 39.2 °F 93% 29.62 in 4.0 mi East 9.2 mph - 0.04 in Rain Light Rain
8:53 PM 41.0 °F 33.9 °F 39.0 °F 93% 29.63 in 5.0 mi East 12.7 mph - 0.12 in Rain Light Rain
9:10 PM 39.2 °F 33.0 °F 39.2 °F 100% 29.61 in 6.0 mi East 9.2 mph - 0.01 in Rain Light Rain
9:20 PM 39.2 °F 33.0 °F 37.4 °F 93% 29.60 in 6.0 mi East 9.2 mph 18.4 mph 0.02 in Rain Light Rain
9:35 PM 39.2 °F 32.5 °F 37.4 °F 93% 29.61 in 10.0 mi East 10.4 mph - 0.02 in   Overcast
9:53 PM 39.9 °F 32.9 °F 37.9 °F 93% 29.62 in 5.0 mi East 11.5 mph - 0.02 in   Overcast
10:53 PM 39.9 °F 33.4 °F 37.9 °F 93% 29.60 in 8.0 mi East 10.4 mph - 0.02 in   Overcast
11:38 PM 39.2 °F 32.0 °F 37.4 °F 93% 29.60 in 8.0 mi ESE 11.5 mph - 0.01 in Rain Light Rain
11:53 PM 39.9 °F 32.5 °F 37.9 °F 93% 29.61 in 5.0 mi ESE 12.7 mph - 0.03 in Rain Rain